Location: Hilliard
(41.1377°N, 110.8115°W)
Time: 21:16:15
(UTC+00:00)

Tiangong - Visible Passes

Search period start: 30 November 2023 00:00
Search period end: 10 December 2023 00:00
Orbit: 374 x 384 km, 41.5° (Epoch: 30 November)

Date Brightness Start Highest point End Pass type
(mag) Time Alt. Az. Time Alt. Az. Time Alt. Az.
30 Nov -1.9 01:15:36 10° W 01:18:44 65° SSW 01:20:09 29° ESE visible
01 Dec -0.5 01:50:56 10° W 01:53:43 29° SSW 01:53:58 28° SSW visible
02 Dec -1.2 00:49:09 10° W 00:52:11 45° SSW 00:55:13 10° SE visible
02 Dec 1.2 02:27:30 10° SW 02:27:53 11° SW 02:27:53 11° SW visible
03 Dec 0.5 01:24:34 10° WSW 01:26:53 19° SSW 01:29:11 10° SSE visible
04 Dec -0.2 00:22:24 10° W 00:25:14 31° SSW 00:28:03 10° SE visible
05 Dec 1.1 00:58:22 10° WSW 00:59:38 12° SW 01:00:55 10° S visible
